CZ-4B DEB, 43431

Orbit data source: Space-Track

CZ-4B DEB, 43431 is space debris in LEO originally from a launch on Thu, 15 Jun 2017 UTC launched from the Jiuquan Satellite Launch Center, China (JSC). Debris objects in space refer to the collection of defunct objects orbiting the Earth. Examples of debris include non-operational satellites, rocket bodies, and fragments generated from explosions, collisions, or faulty payload assembly.

Loading next visibility...
Identifier
43431, 2017-034G
Orbit
LEO
Country
Flag of CNCN / PRC
Related business
Manufacturer
SAST
Mission
Spacecraft
Bus & Motor
Unknown
Mass
Unknown
Launch date (UTC)
2017-06-15 (9 years ago)
Launch vehicle
Unknown
Launch site
Jiuquan Satellite Launch Center, China (JSC)
Object type
Payload
Rocket body
Debris
Shape & HBR
Unknown shape, 0.1 m
Radar Cross Section
Small (<0.1 m²)

Expand to show TLE details & history
Last TLE update: 20 hours ago

TLE from 20 hours ago
0 CZ-4B DEB
1 43431U 17034G   26169.59753346  .00009876  00000-0  64735-3 0  9994
2 43431  43.0786 359.2337 0114143 243.7683 115.1391 15.02582149480374
Epoch: 2026-06-18T14:20Z
TLE epoch observation values (Epoch: 2026-06-18T14:20:26.890Z)
Latitude
-0.00002°
Longitude
-122.71694°
Altitude
593.092 km
Speed
7.546 km/s
True Right ascension
23h 56m 56s
True Declination
0° 00' 00"
Sunlit
Object was in daylight at epoch
Visualization orbit readout
Latitude
Unknown
Longitude
Unknown
Altitude
Unknown
Speed
Unknown
Apparent Right ascension
Unknown
Apparent Declination
Unknown
Sunlit
N/A
Visualization observer readout
Local Sidereal Time
21:40:32
Azimuth
Unknown
Elevation
Unknown
Doppler factor
Unknown
Orbital elements
Apogee altitude
640.052 km
Perigee altitude
481.645 km
Semi-major axis
6,938.986 km
Eccentricity
0.01141
Inclination
43.0786°
RAAN
359.2337°
Arg. of periapsis
243.7683°
True anomaly
116.31597°
Mean anomaly
115.1391°
Eccentric anomaly
115.72826°
Mean motion
3.75491 °/min
Orbital period
95.87 mins
BSTAR
0.00064735
Loading maneuver chart data...
Computing Atmospheric mass density...
Loading historical data...
Loading historical data...
Loading historical data...
Loading historical data...
Loading historical data...
Loading historical data...
Loading historical data...

Documentation

Showing up to 5 results
|